Terug naar catalogus

STARLINK-30282

ActiefCommunicatieVLEO
NORAD 57883·PAYLOAD·🇺🇸 United States

Gelanceerd Sep 16, 2023 vanaf Cape Canaveral Space Force Station

Loading…

Volgende Passages (komende 24 uur)

TLE

VersSource: CelesTrak SupGP

Epoch: Sep 15, 2026, 02:15 UTC

1 57883C 23144V   26258.09423611  .00023014  00000+0  83374-3 0  2589
2 57883  43.0001 295.1651 0001442 262.7982 285.6721 15.27559841    16

Volg STARLINK-30282 in realtime met AllMySat

Download on the App Store